Location: Unspecified
(41.5000°N, 0.0000°E)
Time: 20:24:35
(UTC+00:00)

Courier 1B Rocket - Pass Details

Date: 26 June 2019
Orbit: 920 x 1202 km, 28.2° (Epoch: 21 July)

Event Time Altitude Azimuth Distance (km) Brightness Sun altitude
Rises 03:26:13 0° 237° (WSW) 3,955 - -9.9°
Reaches altitude 10° 03:29:35 10° 225° (SW) 2,950 - -9.4°
Exits shadow 03:29:56 11° 224° (SW) 2,854 6.7 -9.3°
Maximum altitude 03:35:14 25° 173° (S) 1,971 6.3 -8.6°
Drops below altitude 10° 03:40:37 10° 121° (ESE) 2,783 7.6 -7.9°
Sets 03:43:41 0° 108° (ESE) 3,688 8.5 -7.4°
